STARLINK-4458, 53668

Orbit data source: Space-Track

STARLINK-4458, 53668 is a payload satellite owned by SpaceX/Seattle (US) in SSO that was launched on Wed, 31 Aug 2022 UTC via an FALCON 9 launch vehicle from the Air Force Western Test Range (AFWTR). Payload-class satellites include a variety of spacecraft equipped with specific instruments for various scientific and technological missions. These include communications satellites like Starlink; space stations such as the ISS; scientific satellites like the Hubble; Earth observation satellites from companies like Planet Labs, Umbra, and HawkEye 360; GPS; miniature CubeSats for education and research; and military/defense satellites.

Loading next visibility...
Identifier
53668, 2022-105W
Orbit
SSO
Country
Flag of USUS
Related business
Manufacturer
SpaceX/Seattle
Mission
Partially operational Commercial Communications
Bus & Motor
STARLINK, Unknown motor
Mass
300 kg wet, ~290 kg dry
Launch date (UTC)
2022-08-31 (4 years ago)
Launch vehicle
FALCON 9
Launch site
Air Force Western Test Range (AFWTR)
Object type
Payload
Rocket body
Debris
Shape & HBR
Box + 1 Pan, 10.1 m
Radar Cross Section
13.562 m², Large (>1 m²)

Expand to show TLE details & history
Last TLE update: 2 days ago

TLE from 2 days ago
0 STARLINK-4458
1 53668U 22105W   26171.41668980  .00156427  00000-0  17807-2 0  9997
2 53668  97.6026  56.0131 0001085  83.8352 151.0063 15.61755853  5893
Epoch: 2026-06-20T10:00Z
TLE epoch observation values (Epoch: 2026-06-20T10:00:01.998Z)
Latitude
-54.38557°
Longitude
166.6947°
Altitude
404.394 km
Speed
7.666 km/s
True Right ascension
15h 01m 20s
True Declination
-54° 12' 51"
Sunlit
Object was in full shadow at epoch
Visualization orbit readout
Latitude
Unknown
Longitude
Unknown
Altitude
Unknown
Speed
Unknown
Apparent Right ascension
Unknown
Apparent Declination
Unknown
Sunlit
N/A
Visualization observer readout
Local Sidereal Time
21:26:53
Azimuth
Unknown
Elevation
Unknown
Doppler factor
Unknown
Orbital elements
Apogee altitude
380.237 km
Perigee altitude
378.771 km
Semi-major axis
6,757.641 km
Eccentricity
0.00011
Inclination
97.6026°
RAAN
56.0131°
Arg. of periapsis
83.8352°
True anomaly
151.01233°
Mean anomaly
151.0063°
Eccentric anomaly
151.00931°
Mean motion
3.90706 °/min
Orbital period
92.14 mins
BSTAR
0.0017807
Loading maneuver chart data...
Computing Atmospheric mass density...
Loading historical data...
Loading historical data...
Loading historical data...
Loading historical data...
Loading historical data...
Loading historical data...
Loading historical data...

Documentation

Showing up to 5 results
|